Date String (YYYY-MM-DD hh:mm:ss) UTC,Instrument flags,Ambient pressure (hPa),Sample flow (lpm),Bypass flow (lpm),Sample temperature (°C),Ambient temperature (°C),ASC tube jacket temperature (°C),LED temperature (°C),Box temperature (°C),Sample RH (%),Span deviation,Mass concentration (μg/m³),Mass concentration (μg/m³),Mass concentration (μg/m³)
DateTimeUTC,F1_M11,P_M11,Q1_M11,Q2_M11,T1_M11,T2_M11,T3_M11,T4_M11,T5_M11,U1_M11,ZSPAN_M11,X0_M11,X2_M11,X1_M11
2022-12-08 10:00:00,,0823.3,5.00,0.00,22.3,21.1,00.0,31.1,24.2,12.0,0000.0,0012.59,0004.88,0004.10
2022-12-08 10:01:00,,0823.2,5.00,0.00,22.3,21.1,00.0,31.1,24.1,12.0,0000.0,0012.81,0005.09,0004.22
2022-12-08 10:02:00,,0823.3,5.00,0.00,22.3,21.0,00.0,31.1,24.1,12.0,0000.0,0012.81,0005.29,0004.32
2022-12-08 10:03:00,,0823.2,5.00,0.00,22.3,20.9,00.0,31.1,24.1,12.0,0000.0,0012.72,0005.42,0004.41
2022-12-08 10:04:00,,0823.2,5.01,0.00,22.2,20.9,00.0,31.1,24.1,12.0,0000.0,0013.25,0005.51,0004.49
2022-12-08 10:05:00,,0823.1,5.00,0.00,22.2,20.9,00.0,31.1,24.1,12.0,0000.0,0013.57,0005.61,0004.56
2022-12-08 10:06:00,,0823.1,5.00,0.00,22.2,20.8,00.0,31.1,24.0,12.0,0000.0,0013.24,0005.66,0004.61
2022-12-08 10:07:00,,0823.1,5.00,0.00,22.2,20.8,00.0,31.1,24.0,12.1,0000.0,0013.47,0005.74,0004.65
2022-12-08 10:08:00,,0823.0,5.00,0.00,22.2,20.6,00.0,31.1,23.9,12.1,0000.0,0013.54,0005.79,0004.68
2022-12-08 10:09:00,,0823.0,5.00,0.00,22.1,20.4,00.0,31.1,23.8,12.2,0000.0,0013.09,0005.79,0004.70
2022-12-08 10:10:00,,0823.0,5.00,0.00,22.0,20.3,00.0,31.1,23.7,12.3,0000.0,0012.77,0005.84,0004.71
2022-12-08 10:11:00,,0823.0,5.00,0.00,21.9,20.1,00.0,31.0,23.6,12.3,0000.0,0012.72,0005.89,0004.73
2022-12-08 10:12:00,,0823.0,5.00,0.00,21.9,20.0,00.0,31.0,23.5,12.3,0000.0,0013.26,0005.85,0004.71
2022-12-08 10:13:00,,0822.9,5.00,0.00,21.8,20.0,00.0,31.0,23.5,12.4,0000.0,0013.35,0005.79,0004.70
2022-12-08 10:14:00,,0822.8,5.01,0.00,21.8,20.1,00.0,30.9,23.5,12.4,0000.0,0014.10,0005.72,0004.69
2022-12-08 10:15:00,,0822.8,5.01,0.00,21.8,20.1,00.0,30.9,23.5,12.4,0000.0,0013.92,0005.72,0004.68
2022-12-08 10:16:00,,0822.8,5.00,0.00,21.8,20.2,00.0,30.9,23.5,12.4,0000.0,0013.59,0005.65,0004.63
2022-12-08 10:17:00,,0822.7,5.00,0.00,21.8,20.7,00.0,30.9,23.6,12.4,0000.0,0013.82,0005.64,0004.56
2022-12-08 10:18:00,,0822.7,5.01,0.00,21.9,21.6,00.0,30.8,23.9,12.4,0000.0,0013.74,0005.57,0004.51
2022-12-08 10:19:00,,0822.7,5.00,0.00,22.0,22.3,00.0,30.8,24.1,12.3,0000.0,0013.40,0005.48,0004.45
2022-12-08 10:20:00,,0822.6,4.99,0.00,22.1,22.0,00.0,30.9,24.1,12.3,0000.0,0013.14,0005.38,0004.39
2022-12-08 10:21:00,,0822.6,5.00,0.00,22.1,21.7,00.0,30.9,24.1,12.3,0000.0,0013.07,0005.23,0004.30
2022-12-08 10:22:00,,0822.6,5.00,0.00,22.1,21.4,00.0,30.9,24.0,12.3,0000.0,0012.94,0005.09,0004.23
2022-12-08 10:23:00,,0822.6,5.00,0.00,22.1,21.2,00.0,31.0,23.9,12.3,0000.0,0012.75,0004.98,0004.16
2022-12-08 10:24:00,,0822.6,4.99,0.00,22.1,21.0,00.0,31.0,23.9,12.3,0000.0,0012.55,0004.90,0004.08
2022-12-08 10:25:00,,0822.6,5.02,0.00,22.1,20.9,00.0,31.0,23.9,12.3,0000.0,0011.91,0004.81,0004.01
2022-12-08 10:26:00,,0822.6,5.01,0.00,22.1,20.8,00.0,31.0,23.8,12.2,0000.0,0011.96,0004.79,0003.97
2022-12-08 10:27:00,,0822.6,5.00,0.00,22.0,20.7,00.0,31.0,23.8,12.2,0000.0,0012.07,0004.82,0003.97
2022-12-08 10:28:00,,0822.6,4.99,0.00,22.0,20.6,00.0,31.0,23.8,12.2,0000.0,0012.49,0004.81,0003.99
2022-12-08 10:29:00,,0822.6,4.98,0.00,22.0,20.6,00.0,31.0,23.8,12.2,0000.0,0012.96,0004.82,0004.00
2022-12-08 10:30:00,,0822.6,4.99,0.00,22.0,20.6,00.0,31.0,23.8,12.2,0000.0,0014.04,0004.84,0004.02
2022-12-08 10:31:00,,0822.6,5.00,0.00,22.0,20.5,00.0,30.9,23.7,12.2,0000.0,0014.15,0004.91,0004.05
2022-12-08 10:32:00,,0822.7,5.00,0.00,22.0,20.5,00.0,30.9,23.7,12.2,0000.0,0014.23,0004.99,0004.07
2022-12-08 10:33:00,,0822.6,5.01,0.00,21.9,20.4,00.0,30.9,23.7,12.2,0000.0,0014.41,0005.08,0004.12
2022-12-08 10:34:00,,0822.6,5.01,0.00,21.9,20.4,00.0,30.9,23.7,12.2,0000.0,0014.28,0005.17,0004.16
2022-12-08 10:35:00,,0822.6,5.00,0.00,21.9,20.4,00.0,30.9,23.7,12.1,0000.0,0015.13,0005.21,0004.21
2022-12-08 10:36:00,,0822.7,5.00,0.00,21.9,20.4,00.0,30.9,23.7,12.0,0000.0,0015.86,0005.29,0004.23
2022-12-08 10:37:00,,0822.6,4.99,0.00,21.9,20.3,00.0,30.9,23.6,11.9,0000.0,0015.39,0005.26,0004.22
2022-12-08 10:38:00,,0822.6,4.99,0.00,21.9,20.4,00.0,30.9,23.6,12.0,0000.0,0015.06,0005.26,0004.22
2022-12-08 10:39:00,,0822.6,4.99,0.00,21.9,21.0,00.0,30.8,23.8,12.0,0000.0,0014.76,0005.24,0004.24
2022-12-08 10:40:00,,0822.7,5.01,0.00,22.0,21.9,00.0,30.8,24.0,11.9,0000.0,0014.46,0005.28,0004.26
2022-12-08 10:41:00,,0822.7,5.01,0.00,22.1,22.0,00.0,30.9,24.1,11.8,0000.0,0013.63,0005.32,0004.28
2022-12-08 10:42:00,,0822.6,5.00,0.00,22.1,21.8,00.0,30.9,24.1,11.9,0000.0,0013.79,0005.39,0004.32
2022-12-08 10:43:00,,0822.6,4.99,0.00,22.1,21.5,00.0,30.9,24.0,11.8,0000.0,0013.92,0005.43,0004.36
2022-12-08 10:44:00,,0822.6,5.00,0.00,22.1,21.3,00.0,30.9,24.0,11.8,0000.0,0014.44,0005.45,0004.39
2022-12-08 10:45:00,,0822.6,5.00,0.00,22.1,21.2,00.0,31.0,24.0,11.9,0000.0,0014.95,0005.46,0004.42
2022-12-08 10:46:00,,0822.6,5.01,0.00,22.1,21.0,00.0,31.0,23.9,11.9,0000.0,0014.43,0005.50,0004.46
2022-12-08 10:47:00,,0822.6,5.01,0.00,22.1,20.9,00.0,31.0,23.9,11.9,0000.0,0013.20,0005.50,0004.51
2022-12-08 10:48:00,,0822.6,4.99,0.00,22.1,20.8,00.0,31.0,23.8,11.9,0000.0,0013.53,0005.55,0004.58
2022-12-08 10:49:00,,0822.6,5.00,0.00,22.1,20.8,00.0,31.0,23.8,12.0,0000.0,0014.68,0005.57,0004.60
2022-12-08 10:50:00,,0822.6,5.00,0.00,22.0,20.7,00.0,31.0,23.8,12.0,0000.0,0015.29,0005.54,0004.56
2022-12-08 10:51:00,,0822.6,4.99,0.00,22.0,20.6,00.0,31.0,23.8,12.0,0000.0,0015.10,0005.51,0004.55
2022-12-08 10:52:00,,0822.6,5.00,0.00,22.0,20.6,00.0,31.0,23.8,12.1,0000.0,0015.27,0005.42,0004.50
2022-12-08 10:53:00,,0822.6,5.00,0.00,22.0,20.6,00.0,31.0,23.8,12.1,0000.0,0014.97,0005.26,0004.41
2022-12-08 10:54:00,,0822.6,5.01,0.00,22.0,20.5,00.0,30.9,23.8,12.1,0000.0,0014.60,0005.12,0004.31
2022-12-08 10:55:00,,0822.6,5.00,0.00,22.0,20.5,00.0,30.9,23.8,12.1,0000.0,0013.35,0004.94,0004.20
2022-12-08 10:56:00,,0822.7,5.00,0.00,21.9,20.4,00.0,30.9,23.7,12.2,0000.0,0012.28,0004.76,0004.10
2022-12-08 10:57:00,,0822.6,5.00,0.00,21.9,20.4,00.0,30.9,23.7,12.2,0000.0,0011.96,0004.60,0003.99
2022-12-08 10:58:00,,0822.6,4.99,0.00,21.9,20.3,00.0,30.9,23.6,12.2,0000.0,0011.90,0004.49,0003.89
2022-12-08 10:59:00,,0822.6,4.99,0.00,21.9,20.3,00.0,30.9,23.6,12.3,0000.0,0011.51,0004.35,0003.78
